Hourly Data Report for September 24, 2017

All times are specified in Local Standard Time (LST). Add 1 hour to adjust for Daylight Saving Time where and when it is observed.

RANKIN INLET A
NUNAVUT

62°48'38.000" N
92°06'53.000" W
32.30 m
2303405
71083
YRT

Download Data

Hourly Data (September 2017)
Hourly Data Report for September 24, 2017
Temp Definition
°C
Dew Point Temp Definition
°C
Rel Hum Definition
%
Wind Dir Definition
10's deg

Wind Spd Definition
km/h
Visibility Definition
km
Stn Press Definition
kPa
Hmdx Definition


Wind Chill Definition


Weather Definition


TIME
00:00 Legend Double Dagger -0.9 -1.9 92 35 12 24.1 102.02   -5 Mainly Clear
01:00 Legend Double Dagger -1.1 -1.8 95 34 13 24.1 102.03   -5 LegendNANA
02:00 Legend Double Dagger -1.2 -1.9 95 36 10 24.1 102.01   -5 LegendNANA
03:00 Legend Double Dagger -1.2 -2.2 93 34 13 24.1 102.00   -5 Mainly Clear
04:00 Legend Double Dagger -2.3 -3.1 94 33 15 24.1 102.02   -7 LegendNANA
05:00 Legend Double Dagger -0.8 -2.0 91 33 13 24.1 102.01   -5 LegendNANA
06:00 Legend Double Dagger -0.7 -2.3 89 30 13 24.1 102.03   -5 Mostly Cloudy
07:00 Legend Double Dagger -0.4 -3.2 82 30 16 24.1 102.02   -5 LegendNANA
08:00 Legend Double Dagger -0.4 -3.6 79 32 18 24.1 102.00   -5 LegendNANA
09:00 Legend Double Dagger 0.0 -3.6 77 32 15 24.1 101.97   -4 Mostly Cloudy
10:00 Legend Double Dagger 0.2 -3.7 75 34 16 24.1 101.95     LegendNANA
11:00 Legend Double Dagger 1.1 -3.1 74 31 17 24.1 101.93     LegendNANA
12:00 Legend Double Dagger 2.1 -3.0 69 29 16 24.1 101.92     Mostly Cloudy
13:00 Legend Double Dagger 2.9 -2.6 67 28 19 24.1 101.88     LegendNANA
14:00 Legend Double Dagger 3.5 -2.3 66 31 19 24.1 101.82     LegendNANA
15:00 Legend Double Dagger 3.4 -2.7 64 30 17 24.1 101.81     Mainly Clear
16:00 Legend Double Dagger 3.1 -2.9 65 34 10 24.1 101.80     LegendNANA
17:00 Legend Double Dagger 2.6 -2.8 68 35 13 24.1 101.78     LegendNANA
18:00 Legend Double Dagger 0.9 -2.4 78 35 10 24.1 101.76     Mainly Clear
19:00 Legend Double Dagger 0.9 -2.3 79 34 6 24.1 101.75     LegendNANA
20:00 Legend Double Dagger 1.7 -3.6 68 32 7 24.1 101.72     LegendNANA
21:00 Legend Double Dagger 1.2 -3.4 71 31 10 24.1 101.68     Clear
22:00 Legend Double Dagger 1.2 -3.1 73 28 9 24.1 101.67     LegendNANA
23:00 Legend Double Dagger 0.3 -2.0 84 29 13 24.1 101.66     LegendNANA

Notes on Data Quality.

Legend

  • E = Estimated
  • M = Missing
  • NA = Not Available
  • ‡ = Partner data that is not subject to review by the National Climate Archives
Date modified: